Theta_e
298 297 298 298 298 299 297 297 293 295 296 302 305 306 307 308 308 307 307 308 307 307 308 308 307 308 307 307 308 309 308 308 309 310 311 311 311 312 311 311 311 311 311 311
295 297 297 295 297 298 297 297 297 297 296 304 306 308 306 306 306 306 306 305 305 306 306 305 305 306 306 306 307 308 307 306 308 309 309 309 309 308 308 307 307 306 306 306
291 294 293 289 294 296 297 298 298 294 299 304 302 302 304 304 305 304 304 303 304 304 304 305 305 306 305 305 306 305 305 306 306 306 305 304 303 303 302 302 303 302 302 303
291 292 283 294 301 298 296 297 299 299 301 302 303 304 304 305 304 302 303 303 304 303 303 305 304 304 304 304 304 304 304 304 303 301 300 300 300 301 301 301 300 299 299 300
289 288 290 293 298 298 297 296 301 301 301 302 303 305 303 303 303 302 303 302 302 302 302 303 302 303 301 301 302 302 301 300 300 299 299 300 300 301 301 300 298 299 299 299
291 285 282 295 300 303 302 290 301 302 301 301 302 298 296 303 303 302 302 301 301 301 301 301 302 300 298 298 299 298 298 297 300 301 301 300 300 300 301 301 299 299 298 300
290 289 291 298 300 303 290 291 302 302 301 301 299 299 301 301 300 301 300 299 299 299 299 299 298 297 296 297 294 293 297 300 301 301 300 300 300 301 301 300 300 300 299 300
290 287 285 302 301 294 300 304 303 301 300 299 299 299 298 299 299 298 297 296 296 295 295 295 296 295 294 290 293 297 298 298 298 298 299 301 301 302 304 301 301 303 300 299
293 293 302 304 303 306 305 302 300 299 298 297 297 297 297 296 295 294 292 292 293 292 292 294 294 291 288 292 295 295 294 295 297 300 302 302 302 302 300 300 300 302 303 300
297 298 299 300 302 302 302 300 298 298 297 297 295 295 294 292 291 291 290 290 291 291 290 288 289 290 292 294 293 292 292 294 298 300 302 303 303 303 304 299 300 301 302 301
295 294 296 297 300 298 296 298 297 297 296 295 295 293 291 290 289 289 289 290 290 288 287 287 289 289 290 291 292 290 291 293 297 301 302 302 300 301 300 303 301 299 300 303
293 301 299 297 297 296 296 296 296 295 295 295 295 291 291 289 289 289 289 289 287 287 287 286 287 288 289 290 290 289 290 291 295 298 300 300 299 299 298 296 295 294 292 293
302 305 303 298 297 299 297 297 296 296 296 294 295 294 290 289 288 288 287 287 287 286 286 286 286 287 287 288 289 289 289 289 293 296 299 298 298 298 298 303 300 296 294 293
305 302 298 298 296 298 298 297 296 295 295 295 294 293 290 287 287 286 285 286 287 286 285 285 286 286 287 287 287 287 288 289 293 296 298 299 299 300 301 303 301 306 301 295
300 303 302 299 298 297 298 296 294 294 294 293 293 290 288 285 285 286 287 287 286 285 285 284 284 285 287 286 286 286 287 288 290 295 297 299 301 302 302 303 303 306 302 300
301 301 298 297 295 295 295 294 294 294 293 292 290 289 287 287 288 287 287 287 284 284 284 284 284 286 287 288 287 286 287 287 288 291 296 299 302 301 302 301 302 302 303 300
298 296 296 295 294 294 294 295 295 294 293 291 289 289 287 286 287 286 287 287 287 287 285 285 284 288 287 288 288 285 286 287 286 288 292 296 299 301 301 303 303 304 305 301
301 300 299 296 294 294 295 295 295 295 292 292 290 287 285 285 284 285 286 286 286 287 286 286 286 287 288 287 288 289 286 285 285 285 286 288 291 296 298 300 302 303 306 306
298 296 295 296 296 297 296 296 295 296 293 291 287 285 285 285 285 285 287 285 283 283 284 286 286 287 286 286 287 289 285 283 285 284 284 285 286 288 291 293 296 300 301 304
295 296 296 296 297 297 296 295 296 294 292 289 288 286 284 284 285 285 286 285 283 283 285 285 286 285 286 286 286 288 288 286 284 283 283 283 283 284 285 286 288 292 295 298
296 296 296 296 296 297 296 295 295 293 292 289 285 284 284 284 286 286 285 284 284 284 285 285 285 284 285 285 286 286 287 286 286 287 284 282 282 283 282 283 284 286 288 290
297 296 296 296 296 295 295 295 295 294 292 290 288 285 285 284 285 286 285 282 285 283 284 284 283 282 284 284 285 285 285 285 285 285 285 284 282 282 281 281 282 283 284 285
296 296 296 296 295 294 293 293 294 293 291 290 288 286 286 287 284 283 283 284 284 283 285 283 282 282 282 286 284 284 284 284 283 284 285 285 285 284 283 282 282 282 283 283
297 297 296 297 295 293 292 292 293 292 291 289 289 288 287 286 287 285 285 284 282 283 285 283 282 282 283 286 285 284 283 283 283 283 284 283 285 285 285 283 282 282 282 282
296 296 296 296 295 293 295 293 293 293 291 290 290 289 289 289 285 285 285 285 284 285 287 283 283 283 285 285 285 284 283 283 283 283 283 283 283 284 285 285 284 283 283 282
296 295 295 295 294 294 292 292 290 291 291 289 289 289 289 289 288 288 286 284 287 286 287 287 286 286 285 284 283 283 284 284 283 283 283 284 283 284 284 284 285 285 285 283
294 292 294 293 294 293 292 290 290 289 289 290 289 289 289 289 288 288 285 286 286 286 287 287 287 285 285 284 283 283 283 283 282 282 283 283 283 283 283 284 284 285 286 285
Wind_Speed
8 3 3 6 10 10 10 6 7 3 6 14 13 11 8 5 4 4 3 1 5 6 7 8 8 9 9 10 12 12 13 14 14 14 14 14 14 14 14 14 14 15 16 17
10 6 4 5 6 7 6 5 6 4 5 2 6 2 7 5 2 2 2 5 7 8 10 11 11 11 12 13 13 13 13 15 15 14 14 14 14 14 14 15 15 15 16 17
9 5 4 8 11 12 9 6 7 9 3 10 5 5 4 3 1 2 2 4 7 9 9 10 11 11 14 14 14 14 14 14 13 13 13 14 14 15 14 15 15 15 17 17
6 8 7 8 1 1 7 3 4 3 7 6 7 5 3 7 8 5 8 11 11 10 11 11 12 12 12 13 13 13 13 13 13 14 14 14 14 15 15 14 13 14 14 15
4 7 5 5 6 8 10 10 3 9 8 6 4 7 11 7 7 8 10 10 10 10 12 13 13 13 13 14 13 13 13 13 13 13 14 14 15 15 15 14 14 14 16 16
6 5 5 11 6 2 4 7 5 3 5 5 6 5 7 10 11 11 10 10 12 13 13 12 12 13 13 13 12 12 12 13 14 14 14 15 16 16 15 15 14 12 14 16
5 2 5 6 2 1 5 5 7 7 8 8 8 8 11 12 12 11 12 13 14 13 13 12 12 12 12 12 12 12 13 14 14 15 15 15 15 14 14 12 14 14 14 14
4 3 4 5 6 2 8 9 9 9 9 9 9 10 11 12 13 14 14 15 13 12 12 12 11 11 12 11 12 12 13 14 15 15 11 11 14 15 14 11 14 15 12 11
1 5 10 11 13 9 9 10 9 8 9 9 10 12 14 14 14 13 13 12 12 12 13 11 12 10 10 11 11 12 13 14 15 14 13 12 14 13 10 10 11 13 12 8
7 11 13 13 13 12 12 11 9 9 9 10 11 13 13 12 12 12 11 12 12 12 12 12 10 9 10 11 11 12 13 14 14 14 13 13 12 13 10 8 10 12 9 9
15 13 13 10 12 11 11 10 10 9 8 10 11 12 12 10 11 11 11 12 11 10 8 10 11 11 10 10 11 11 12 12 13 11 12 13 11 10 11 12 10 10 10 10
3 16 7 13 11 10 10 10 9 9 8 8 9 11 11 10 10 10 10 9 8 8 8 11 11 11 10 11 11 11 11 10 10 11 11 10 10 12 13 14 18 15 13 10
8 9 16 17 13 11 12 11 9 10 10 8 8 9 10 10 9 10 9 9 8 10 11 11 11 11 12 11 11 11 11 11 10 11 10 9 10 10 10 11 9 8 8 9
17 18 18 17 13 13 12 11 10 9 8 8 9 9 10 8 8 7 8 9 10 10 11 11 12 13 12 12 12 12 11 14 10 10 10 9 9 10 8 8 9 9 6 5
6 7 14 16 14 12 9 8 8 9 9 9 9 9 9 9 9 8 8 9 10 9 11 13 13 14 14 12 13 12 9 8 10 10 9 10 8 9 10 9 9 9 9 11
13 16 17 14 13 11 9 8 8 8 9 10 8 9 8 8 8 10 10 10 11 11 13 13 14 14 13 14 14 10 9 13 11 10 9 9 7 8 6 7 7 7 4 7
15 14 13 13 11 9 9 9 8 8 7 10 9 8 6 7 8 10 11 13 12 12 13 15 15 15 14 15 12 8 8 8 13 7 10 10 10 10 10 9 4 7 7 7
5 11 10 11 10 10 9 8 7 8 7 9 8 9 7 7 9 10 10 12 13 13 15 16 16 15 15 16 14 9 9 9 8 9 8 10 11 10 10 10 11 11 10 7
13 14 13 12 10 9 8 7 8 8 8 8 7 8 7 7 7 9 10 12 14 14 15 16 20 16 16 18 17 10 10 10 10 9 9 11 10 11 10 10 11 12 12 12
14 14 13 13 11 9 9 8 8 9 9 9 9 7 8 8 7 9 10 10 13 11 14 15 16 15 16 16 17 11 11 9 9 9 10 10 9 10 10 12 12 11 10 11
13 12 11 11 10 10 9 7 7 8 8 10 9 8 7 8 8 10 12 9 13 15 13 16 14 13 11 13 12 12 12 12 12 11 11 10 10 10 10 11 12 11 11 11
10 9 10 10 11 10 8 8 7 8 8 9 11 8 6 9 8 8 11 11 9 17 10 11 12 17 12 14 11 12 13 13 12 11 11 10 9 10 10 10 10 10 11 10
9 10 9 9 10 10 8 8 8 9 9 10 10 9 8 7 7 8 9 12 9 12 9 10 14 16 15 11 11 11 12 14 13 12 11 11 10 9 10 10 10 10 10 10
9 9 9 10 10 8 8 8 8 8 8 8 9 9 8 7 7 7 7 8 12 11 7 10 12 14 12 10 11 12 12 11 12 12 12 14 12 11 10 10 10 9 9 11
11 10 8 7 7 6 7 6 6 6 6 7 8 8 9 8 7 6 7 7 8 10 9 8 10 11 11 11 12 12 11 11 11 11 11 12 13 13 13 12 10 9 10 10
8 7 7 8 7 5 4 4 6 6 4 5 6 7 7 7 6 7 7 8 9 10 10 10 11 11 11 11 12 12 12 12 13 12 12 11 12 12 13 14 13 12 10 9
8 6 7 7 6 6 6 6 5 6 5 4 5 6 7 6 6 7 9 9 8 9 9 9 10 11 11 11 11 11 11 11 13 13 11 11 11 11 13 13 13 13 12 11
Wind_Direction
153 211 175 176 178 185 211 226 231 148 212 169 176 175 167 165 169 163 145 78 33 5 357 344 340 329 320 320 315 315 307 302 300 298 296 296 294 292 291 288 287 290 289 286
157 211 232 215 201 202 212 192 242 201 223 215 95 196 165 177 200 232 34 6 353 344 340 335 331 324 324 314 315 312 306 304 307 304 301 298 297 299 302 300 299 298 295 292
158 176 192 233 226 216 220 210 245 238 30 114 151 179 153 155 172 74 53 338 330 327 325 327 323 319 310 314 315 308 302 301 304 308 308 310 312 305 298 295 296 294 291 289
119 170 216 53 163 251 200 174 184 108 95 91 102 120 127 69 58 19 345 333 329 329 325 323 321 311 317 316 311 309 308 313 323 325 313 305 299 296 297 293 293 286 283 280
169 199 82 143 116 147 157 130 94 121 116 99 109 176 125 84 23 348 335 326 326 327 323 319 316 325 321 316 316 313 322 325 315 308 304 304 299 296 293 291 286 283 283 281
156 185 196 107 114 6 261 120 116 105 74 28 327 258 108 0 353 342 333 333 328 326 316 314 328 326 316 313 315 322 322 309 305 303 301 303 304 299 290 286 278 273 273 274
142 152 106 110 95 292 220 99 98 75 49 33 17 6 338 341 339 338 336 336 332 325 319 334 327 315 311 314 322 309 300 305 311 314 308 296 288 288 287 283 276 277 279 276
185 174 158 150 171 306 100 98 85 65 40 18 0 347 345 339 341 341 339 334 334 326 326 318 314 325 321 315 300 308 313 312 309 301 289 296 300 296 295 288 288 283 281 280
108 86 95 77 84 90 100 95 68 58 40 18 7 356 347 344 343 341 332 329 328 324 317 320 340 322 307 301 319 318 314 306 300 305 309 318 309 298 306 302 290 297 290 276
145 117 104 93 88 86 89 89 80 66 49 36 17 8 351 342 341 333 335 330 328 330 330 327 314 313 312 327 325 321 308 305 306 312 315 317 315 320 318 291 296 297 299 300
93 107 106 111 97 102 100 94 85 72 58 46 27 11 353 343 342 339 334 339 341 333 317 323 336 332 332 330 329 315 308 308 305 308 321 321 315 310 308 296 288 287 289 289
182 163 136 133 113 128 112 91 81 62 62 52 34 13 3 357 352 346 347 343 337 334 335 343 342 335 337 333 326 318 314 313 312 308 321 319 314 314 301 279 281 283 274 257
106 127 114 127 144 119 104 95 82 68 52 36 32 21 13 5 357 351 348 343 340 346 350 346 344 345 347 339 330 324 319 314 309 306 321 315 322 327 326 327 322 292 285 283
109 119 124 136 129 117 106 102 89 75 61 46 29 22 17 11 353 357 360 351 351 360 354 355 354 353 349 343 337 330 321 314 309 316 319 316 320 328 320 342 342 340 16 312
145 145 126 120 126 123 118 103 84 65 51 44 34 26 11 8 0 1 360 358 352 359 4 3 360 355 354 348 341 337 334 331 328 312 319 317 310 325 351 353 344 8 356 5
113 119 132 131 126 121 108 89 80 65 47 39 30 25 7 3 3 8 10 6 8 12 4 4 0 352 354 357 353 349 343 340 332 324 324 326 331 337 337 340 339 345 353 2
133 139 138 135 132 117 95 81 74 72 37 40 28 25 12 7 14 12 14 9 11 17 12 9 1 354 3 2 3 1 341 351 338 342 341 337 339 339 338 333 340 335 5 46
168 131 131 131 131 125 107 87 73 71 53 40 38 37 26 16 17 10 12 13 9 14 16 10 4 357 6 8 351 26 2 359 357 354 348 348 343 341 344 340 339 339 348 17
116 115 112 113 119 114 107 84 72 75 61 52 36 38 28 12 10 15 8 20 14 9 5 5 360 7 11 8 354 13 27 6 5 3 359 349 355 350 349 349 346 343 341 343
117 115 109 110 110 106 100 81 84 81 64 50 42 35 34 16 7 19 12 36 21 1 356 2 5 7 11 2 357 12 10 24 18 9 8 0 357 357 351 349 348 346 348 347
127 123 119 110 105 100 88 83 85 88 76 58 41 25 34 26 18 27 21 17 14 360 1 8 14 5 5 355 9 9 10 13 15 12 22 1 354 359 356 355 349 348 346 345
129 127 114 111 108 102 91 85 84 85 66 55 49 28 23 42 18 25 56 18 4 2 8 11 8 352 346 4 14 14 13 14 11 10 7 14 1 358 355 349 352 346 343 343
117 121 119 119 114 107 100 87 78 74 60 48 41 43 23 49 33 17 15 16 6 358 16 12 359 352 342 24 14 17 16 13 9 9 3 3 360 7 360 350 346 344 343 342
117 116 107 113 123 125 103 87 81 77 69 63 54 45 41 24 42 26 13 20 7 343 28 20 2 357 357 16 18 15 14 14 7 5 3 2 358 359 359 359 347 344 341 341
111 115 120 127 128 112 107 109 107 94 87 65 53 49 46 54 42 21 17 2 27 358 15 54 23 12 14 14 12 13 12 14 8 359 359 0 358 353 353 353 347 344 345 340
103 90 80 69 85 97 81 55 57 42 50 65 52 39 37 39 42 45 33 7 18 6 20 19 27 13 19 15 9 8 6 6 5 2 360 356 352 350 350 347 347 344 342 336
105 120 110 100 88 73 55 46 57 58 42 38 67 40 44 22 46 31 47 17 17 14 22 11 28 22 9 8 13 7 5 2 0 357 356 355 354 346 344 342 339 337 340 340